Weather in Kulykivka

Ukraine / Chernihiv Region     51°22′28″N   31°38′36″E
temp.,
°C
wind,
m/s
gust,
m/s
humid.,
%
clouds,
%
prec.,
mm/h
press.,
hPa
HPBL,
m
25 july, sun
sun2500:00+18nnw007610 0.0 101711
03:00+17sw007763 0.0 101711
06:00+18e117692 0.0 101811
09:00+21ese1167100 0.0 1019149
12:00+22n106169 0.0 1019138
15:00+26ssw3245100 0.1 10191203
18:00+21nne1168100 0.3 101914
21:00+19e12762 0.3 102011
26 july, mon
mon2600:00+17e228985 0.1 102127
03:00+18ese228999 0.9 102137
06:00+17ese228897 0.1 102137
09:00+22sse22692 0.1 1022337
12:00+24sse225465 0.0 1022607
15:00+26sse2349100 0.3 10211308
18:00+25ese235916 0.4 1020236
21:00+22ese336774 0.4 102145
27 july, tue
tue2700:00+19ese3373100 0.1 102125
03:00+18ese34775 0.1 102166
06:00+18se22690 0.0 102124
09:00+24se45505 0.0 1020440
12:00+29s563713 0.0 10201563
15:00+30s563499 0.0 10192361
18:00+30s45355 0.0 10172447
21:00+24s484643 0.0 1017120
28 july, wed
wed2800:00+23se4944100 0.0 1017177
03:00+21sse3459100 0.3 101651
06:00+21s3858100 0.0 1015188
09:00+20s3678100 0.6 1014167
12:00+24ssw5767100 2.1 1014651
15:00+29wsw46526 2.1 10121342
18:00+30wsw3547100 0.0 10111730
21:00+23ene117034 0.0 101111
29 july, thu
thu2900:00+22sse227189 0.0 101113
03:00+20sw227616 0.0 101011
06:00+21wsw1175100 0.0 101011
09:00+26wsw346026 0.0 1009474
12:00+30wsw344522 0.0 10081405
15:00+32wsw5841100 0.0 10072474
18:00+29wnw710505 0.1 10061490
21:00+22nw5107795 0.2 1009430